[[{"header":{"parameterUnit":"m.s-1","parameterCategory":1,"la1":30.2991,"la2":30.254,"lo1":-89.0895,"lo2":-89.0444,"dy":0.0017,"dx":0.0017,"nx":28,"ny":28,"refTime":"2024-05-05T03:00:00:Z","depth":0,"parameterNumber":2,"parameterNumberName":"U-component_of_WINDS"},"data":[0,0,0,0,0,0,0,0,0,0,0,0,0,0,0,0,0,0,0,0,0,0,0,0,0,0,0,0,0,0,0,0,0,0,0,0,0,0,0,0,0,0,0,0,0,0,0,0,0,0,0,0,0,0,0,0,0,0,-1.0808,-1.0809,0,-1.083,-1.0831,-1.0831,-1.0822,-1.0821,-1.0821,-1.082,-1.0844,-1.0845,-1.0846,0,0,0,0,0,0,0,0,0,0,0,0,0,-1.076,-1.0761,-1.0808,-1.0809,-1.0809,-1.083,-1.0831,-1.0831,-1.0822,-1.0821,-1.0821,-1.082,-1.0844,-1.0845,-1.0846,0,0,0,0,0,0,0,0,0,0,0,0,0,-1.0782,-1.0762,-1.0808,-1.0807,-1.0807,-1.083,-1.0831,-1.0831,-1.0822,-1.0821,-1.082,-1.082,-1.0843,-1.0845,-1.0846,-1.0873,0,0,-1.0852,-1.0852,0,0,0,0,0,0,0,0,-1.078,-1.0783,-1.0807,-1.0807,-1.0807,-1.0822,-1.0822,-1.0845,-1.0822,-1.0816,-1.082,-1.0819,-1.0838,-1.084,-1.0846,-1.0874,-1.0875,-1.0852,-1.0853,-1.0853,-1.0854,0,0,0,0,0,0,0,-1.0779,-1.0782,-1.0817,-1.0807,-1.0807,-1.0806,-1.0808,-1.0827,-1.0831,-1.0817,-1.0816,-1.0819,-1.0837,-1.0844,-1.0846,-1.0875,-1.0852,-1.0853,-1.0854,-1.0855,-1.0927,-1.0928,0,0,0,0,0,0,-1.0777,-1.0781,-1.0816,-1.0818,-1.0792,-1.0807,-1.081,-1.0818,-1.0831,-1.0832,-1.082,-1.0818,-1.0841,-1.0844,-1.0847,-1.0879,-1.0853,-1.0855,-1.0856,-1.0926,-1.0927,-1.0928,0,0,0,0,0,0,-1.0776,-1.078,-1.0816,-1.0799,-1.0804,-1.0809,-1.0819,-1.0819,-1.0826,-1.0833,-1.0834,-1.0825,-1.0841,-1.0844,-1.0866,-1.088,-1.0856,-1.0857,-1.0925,-1.0926,-1.0928,-1.0943,0,0,0,0,0,0,-1.0775,-1.078,-1.079,-1.08,-1.0805,-1.0834,-1.082,-1.082,-1.0828,-1.0827,-1.0838,-1.084,-1.0841,-1.0864,-1.0868,-1.0881,-1.0859,-1.0924,-1.0926,-1.0927,-1.0941,-1.0945,-1.0948,0,0,0,0,0,-1.0773,-1.0793,-1.079,-1.0795,-1.0817,-1.0835,-1.0838,-1.0838,-1.083,-1.084,-1.0844,-1.0839,-1.0877,-1.0866,-1.0871,-1.0885,-1.0923,-1.0925,-1.0927,-1.094,-1.0944,-1.0947,0,0,0,0,0,0,-1.0785,-1.0795,-1.0791,-1.0815,-1.0824,-1.0834,-1.0846,-1.0843,-1.0855,-1.0853,-1.0853,-1.0856,-1.0879,-1.0884,-1.0871,-1.0911,-1.0899,-1.0902,-1.0907,-1.0911,-1.0914,-1.0913,-1.086,0,0,0,0,0,-1.0791,-1.0804,-1.0812,-1.0832,-1.0837,-1.0841,-1.0849,-1.0848,-1.0858,-1.0862,-1.0868,-1.0878,-1.0893,-1.0902,-1.0916,-1.0942,-1.0945,-1.0954,-1.0957,-1.096,-1.0962,-1.0977,-1.0982,-1.0935,-1.0935,-1.0935,0,0,-1.0802,-1.0809,-1.0818,-1.0835,-1.0842,-1.0857,-1.0844,-1.086,-1.0871,-1.0865,-1.0886,-1.0891,-1.0902,-1.0927,-1.0938,-1.0932,-1.0976,-1.0962,-1.0964,-1.0966,-1.098,-1.0984,-1.0988,-1.0936,-1.0936,-1.0936,0,0,-1.083,-1.0837,-1.0854,-1.0862,-1.0873,-1.0875,-1.0879,-1.0889,-1.0892,-1.0913,-1.0909,-1.0922,-1.0947,-1.0955,-1.0963,-1.0995,-1.0991,-1.0999,-1.1016,-1.103,-1.1034,-1.1037,-1.1049,-1.1053,-1.1002,-1.1002,-1.1002,0,-1.0843,-1.0865,-1.0864,-1.0881,-1.0889,-1.0883,-1.0902,-1.0909,-1.0924,-1.093,-1.0923,-1.0954,-1.0961,-1.0987,-1.0995,-1.1001,-1.1007,-1.0998,-1.1033,-1.1037,-1.104,-1.1051,-1.1056,-1.1003,-1.1003,-1.1003,-1.1002,0,-1.0881,-1.0896,-1.0909,-1.0923,-1.0933,-1.095,-1.0953,-1.0963,-1.0961,-1.0965,-1.0987,-1.0995,-1.1011,-1.1017,-1.1016,-1.1044,-1.104,-1.1033,-1.102,-1.1045,-1.1056,-1.106,-1.1004,-1.1004,-1.1004,-1.1003,0,0,-1.0917,-1.0931,-1.0936,-1.0942,-1.0954,-1.0966,-1.0984,-1.0998,-1.1007,-1.1018,-1.1033,-1.1054,-1.1048,-1.1056,-1.1056,-1.1069,-1.1095,-1.1061,-1.1061,-1.1067,-1.1126,-1.1132,-1.1137,-1.1092,-1.1093,-1.1093,-1.1126,0,-1.0947,-1.0977,-1.0977,-1.1005,-1.102,-1.1015,-1.103,-1.1039,-1.1043,-1.1056,-1.106,-1.1075,-1.1066,-1.1071,-1.1084,-1.1089,-1.1107,-1.1086,-1.1107,-1.1107,-1.1104,-1.1142,-1.1148,-1.1178,-1.113,-1.113,-1.1131,0,-1.0986,-1.0997,-1.1027,-1.1037,-1.1043,-1.1056,-1.107,-1.1083,-1.1093,-1.1095,-1.1105,-1.1103,-1.1121,-1.1108,-1.1134,-1.112,-1.1128,-1.1132,-1.1134,-1.1136,-1.1121,-1.1146,-1.1187,-1.1192,-1.1138,-1.1137,-1.1137,0,-1.101,-1.1033,-1.1054,-1.106,-1.1072,-1.1081,-1.1087,-1.1097,-1.1106,-1.1118,-1.1124,-1.1138,-1.1146,-1.1158,-1.116,-1.115,-1.1186,-1.1173,-1.1189,-1.1189,-1.1197,-1.1196,-1.1241,-1.1201,-1.1201,-1.1201,-1.1201,0,-1.1044,-1.1062,-1.1065,-1.1078,-1.1099,-1.1099,-1.1119,-1.1124,-1.1133,-1.1147,-1.1144,-1.1157,-1.1159,-1.1173,-1.1175,-1.1196,-1.12,-1.1202,-1.1203,-1.1203,-1.1203,-1.1209,-1.1207,-1.1202,-1.1202,-1.1202,-1.1202,0,-1.1075,-1.1078,-1.11,-1.1109,-1.1112,-1.1127,-1.1135,-1.1148,-1.1151,-1.1169,-1.1174,-1.1179,-1.1196,-1.1199,-1.1218,-1.122,-1.1245,-1.1243,-1.1242,-1.1242,-1.1258,-1.1257,-1.1308,-1.1315,-1.127,-1.1271,-1.1271,0,-1.1096,-1.111,-1.1121,-1.113,-1.1136,-1.1151,-1.116,-1.1161,-1.1171,-1.1184,-1.1195,-1.1211,-1.1224,-1.1251,-1.1257,-1.1272,-1.127,-1.1287,-1.1273,-1.1273,-1.1271,-1.1271,-1.1273,-1.129,-1.1291,-1.1291,-1.1292,0,-1.1135,-1.1135,-1.1148,-1.1162,-1.1173,-1.1184,-1.1194,-1.1202,-1.1204,-1.1215,-1.1232,-1.1242,-1.1262,-1.1278,-1.1293,-1.1299,-1.1296,-1.1296,-1.1301,-1.1301,-1.13,-1.1302,-1.125,-1.1295,-1.1295,-1.1294,-1.1294,-1.1294,-1.1162,-1.1175,-1.1184,-1.1199,-1.1207,-1.1217,-1.1229,-1.1234,-1.1248,-1.1264,-1.1263,-1.1282,-1.1292,-1.1312,-1.1319,-1.1334,-1.1329,-1.1335,-1.1337,-1.1339,-1.1341,-1.1297,-1.1337,-1.1337,-1.1337,-1.1337,-1.1337,0,-1.1201,-1.1207,-1.122,-1.1235,-1.1247,-1.1242,-1.1253,-1.1264,-1.128,-1.129,-1.1302,-1.1322,-1.1337,-1.1345,-1.136,-1.1371,-1.137,-1.1375,-1.1375,-1.1376,-1.1344,-1.1339,-1.1376,-1.1376,-1.1375,-1.1375,-1.1375,-1.1375,-1.1222,-1.1243,-1.1245,-1.127,-1.1276,-1.1294,-1.1301,-1.131,-1.1318,-1.134,-1.1352,-1.1357,-1.1366,-1.1382,-1.1397,-1.1398,-1.1405,-1.1411,-1.1412,-1.1382,-1.1378,-1.1375,-1.137,-1.1412,-1.1412,-1.1443,-1.1443,-1.1443]},{"header":{"parameterUnit":"m.s-1","parameterCategory":1,"la1":30.2991,"la2":30.254,"lo1":-89.0895,"lo2":-89.0444,"dy":0.0017,"dx":0.0017,"nx":28,"ny":28,"refTime":"2024-05-05T03:00:00:Z","depth":0,"parameterNumber":3,"parameterNumberName":"V-component_of_WINDS"},"data":[0,0,0,0,0,0,0,0,0,0,0,0,0,0,0,0,0,0,0,0,0,0,0,0,0,0,0,0,0,0,0,0,0,0,0,0,0,0,0,0,0,0,0,0,0,0,0,0,0,0,0,0,0,0,0,0,0,0,3.9307,3.9308,0,3.9364,3.9365,3.9366,3.9314,3.9312,3.931,3.9308,3.9363,3.9367,3.937,0,0,0,0,0,0,0,0,0,0,0,0,0,3.9151,3.9155,3.9307,3.9308,3.9309,3.9364,3.9365,3.9366,3.9315,3.9312,3.931,3.9307,3.9362,3.9366,3.937,0,0,0,0,0,0,0,0,0,0,0,0,0,3.9215,3.9156,3.9307,3.929,3.9289,3.9364,3.9365,3.9366,3.9315,3.9312,3.9309,3.9306,3.9361,3.9366,3.9371,3.9465,0,0,3.9387,3.9389,0,0,0,0,0,0,0,0,3.9211,3.9221,3.9292,3.9291,3.929,3.9329,3.933,3.9399,3.9316,3.9305,3.9308,3.9304,3.9354,3.936,3.9377,3.9468,3.947,3.9387,3.939,3.9392,3.9394,0,0,0,0,0,0,0,3.9207,3.9218,3.933,3.9293,3.9292,3.9278,3.9284,3.9343,3.9346,3.9306,3.9302,3.931,3.9353,3.9372,3.9378,3.9471,3.9387,3.9392,3.9395,3.9397,3.9641,3.9644,0,0,0,0,0,0,3.9205,3.9214,3.9328,3.9331,3.9242,3.9284,3.929,3.932,3.9346,3.9347,3.9312,3.9307,3.9365,3.9372,3.938,3.9492,3.9392,3.9397,3.94,3.9638,3.9642,3.9645,0,0,0,0,0,0,3.9202,3.9215,3.9326,3.9272,3.9285,3.929,3.9324,3.9322,3.9342,3.9351,3.9351,3.9332,3.9363,3.9373,3.9444,3.9493,3.9399,3.9404,3.9633,3.9639,3.9644,3.9717,0,0,0,0,0,0,3.9197,3.9215,3.9251,3.9273,3.9288,3.939,3.9327,3.9326,3.9351,3.9345,3.9369,3.937,3.9361,3.9437,3.945,3.9499,3.9408,3.9629,3.9636,3.9642,3.971,3.9724,3.9736,0,0,0,0,0,3.9192,3.9269,3.9253,3.9267,3.9334,3.9393,3.9402,3.9391,3.9355,3.9391,3.9397,3.9369,3.9486,3.9445,3.9458,3.951,3.9626,3.9634,3.9641,3.9704,3.9721,3.9735,0,0,0,0,0,0,3.9251,3.9271,3.9254,3.9341,3.9366,3.9385,3.943,3.9409,3.9445,3.9437,3.9422,3.9428,3.9504,3.9513,3.9468,3.9602,3.955,3.9561,3.9593,3.9609,3.9622,3.9618,3.9412,0,0,0,0,0,3.9275,3.9322,3.9337,3.9411,3.9425,3.9426,3.9451,3.9441,3.9466,3.9476,3.9487,3.9511,3.9553,3.9582,3.9621,3.9711,3.9715,3.9753,3.9765,3.9776,3.9786,3.9834,3.9851,3.9671,3.9671,3.967,0,0,3.9323,3.934,3.9371,3.9424,3.9442,3.9491,3.9435,3.9489,3.9524,3.9484,3.9553,3.9562,3.9588,3.9669,3.9706,3.968,3.9836,3.9786,3.9794,3.9798,3.9844,3.9861,3.9876,3.9676,3.9675,3.9674,0,0,3.9436,3.9454,3.9519,3.9538,3.9567,3.9566,3.9582,3.9604,3.9609,3.9678,3.9648,3.969,3.9763,3.9783,3.9803,3.9923,3.9899,3.9936,4.0003,4.0051,4.0065,4.0078,4.0121,4.0137,3.9946,3.9946,3.9946,0,3.9493,3.9566,3.9554,3.9611,3.9635,3.9601,3.9666,3.9685,3.9724,3.9741,3.9712,3.9803,3.9818,3.9904,3.9934,3.995,3.9967,3.9934,4.0064,4.0077,4.0088,4.013,4.0146,3.995,3.995,3.9949,3.9949,0,3.9634,3.9685,3.9734,3.9775,3.9804,3.9864,3.986,3.9891,3.9878,3.9881,3.9952,3.9969,4.0011,4.003,4.0018,4.0115,4.0098,4.0067,4.0014,4.011,4.0149,4.0165,3.9957,3.9955,3.9954,3.9953,0,0,3.9788,3.9821,3.9839,3.9857,3.9886,3.9925,3.9983,4.0025,4.0052,4.008,4.0129,4.0191,4.0162,4.0185,4.0174,4.0216,4.0311,4.0179,4.018,4.0204,4.0419,4.0443,4.0462,4.0294,4.0297,4.03,4.0417,0,3.9903,4.0006,3.9996,4.0094,4.0141,4.0109,4.0159,4.0182,4.0186,4.0226,4.0229,4.0274,4.0233,4.0246,4.0286,4.0291,4.0354,4.0282,4.0339,4.0341,4.0335,4.0482,4.0508,4.0618,4.0432,4.0435,4.0437,0,4.0051,4.0086,4.0189,4.0211,4.023,4.0276,4.0314,4.0352,4.0377,4.0377,4.0402,4.0384,4.0442,4.0387,4.0467,4.0418,4.044,4.0446,4.045,4.0456,4.0396,4.0493,4.0653,4.067,4.046,4.0458,4.0457,0,4.0154,4.0226,4.0297,4.0313,4.034,4.0373,4.0386,4.0408,4.0434,4.0466,4.0483,4.0521,4.0543,4.0573,4.0565,4.0526,4.0647,4.0591,4.0648,4.0649,4.0676,4.0675,4.0843,4.0689,4.0688,4.0688,4.0688,0,4.0285,4.0349,4.0344,4.0387,4.0458,4.0446,4.0515,4.0524,4.0543,4.0587,4.0561,4.0603,4.059,4.0631,4.0625,4.0692,4.0701,4.0702,4.07,4.0706,4.0706,4.0721,4.0714,4.0692,4.0691,4.0691,4.069,0,4.0412,4.0411,4.0486,4.0506,4.0512,4.0564,4.058,4.062,4.0622,4.0678,4.069,4.0692,4.0739,4.0734,4.0786,4.0782,4.0866,4.0854,4.0858,4.0856,4.0913,4.0908,4.1099,4.1123,4.0952,4.0953,4.0955,0,4.0496,4.0545,4.057,4.0598,4.0613,4.0659,4.0686,4.0675,4.0703,4.0735,4.0772,4.0816,4.0852,4.0927,4.0933,4.0973,4.0962,4.1026,4.0968,4.0972,4.0964,4.0962,4.0967,4.1038,4.104,4.1041,4.1043,0,4.0646,4.0643,4.0683,4.0723,4.0756,4.0787,4.0815,4.0839,4.0831,4.0864,4.0912,4.094,4.0993,4.1037,4.1075,4.1086,4.1064,4.1061,4.1076,4.1083,4.1084,4.1085,4.0891,4.1057,4.1055,4.1054,4.1054,4.1053,4.0755,4.0797,4.0821,4.0867,4.0887,4.0913,4.0953,4.0959,4.1,4.1043,4.1034,4.1088,4.111,4.1159,4.1174,4.1216,4.1192,4.1215,4.122,4.1226,4.1234,4.1076,4.1222,4.1222,4.1221,4.1221,4.1221,0,4.0904,4.0918,4.096,4.1001,4.1036,4.1012,4.1041,4.1072,4.1121,4.1144,4.118,4.1235,4.1278,4.1287,4.1327,4.1359,4.135,4.137,4.1368,4.1372,4.1252,4.1235,4.1377,4.1377,4.1377,4.1377,4.1377,4.1377,4.0986,4.1056,4.1056,4.1136,4.1148,4.1202,4.1221,4.1246,4.1265,4.1328,4.1364,4.1369,4.1387,4.1429,4.1467,4.1468,4.1485,4.151,4.1507,4.1395,4.138,4.1365,4.1349,4.1513,4.1514,4.1624,4.1625,4.1626]}]]